Regional Weather Roundup
Issued by NWS State College, PA

Home | Current Version | Previous Version | Graphics & Text | Print | Product List | Glossary Off
Versions: 1 2 3 4 5 6 7 8 9 10 11 12 13 14 15 16 17 18 19 20 21 22 23 24 25 26 27 28 29 30 31 32 33 34 35 36 37 38 39 40 41 42 43 44 45 46 47 48 49 50

000
ASUS41 KCTP 010410
RWRCTP

REGIONAL WEATHER ROUNDUP
NATIONAL WEATHER SERVICE STATE COLLEGE PA
1200 AM EDT SAT NOV 01 2014

Note: "fair" indicates few or no clouds below 12,000 feet with no
significant weather and/or obstructions to visibility.

* = STATION THAT DOES NOT REPORT PRECIPITATION /E.G. RAIN...SNOW...ETC/
    THUNDER OR FOG.

PAZ002>004-007>009-013>016-020>023-029>032-010500-
WESTERN PENNSYLVANIA

CITY           SKY/WX    TMP DP  RH WIND       PRES   REMARKS
ERIE           MOCLDY    42  38  85 CALM      29.94S
MEADVILLE      FOG       39  37  92 NE3       29.91S VSB 3/4
FRANKLIN*      CLOUDY    37  36  93 NE5       29.91F
NEW CASTLE       N/A     41  41 100 CALM      29.92S
BEAVER COUNTY  NOT AVBL
BUTLER*        CLOUDY    39  37  93 NE8       29.91S
PITTSBURGH INT DRIZZLE   41  39  93 NE6       29.88F
PITTSBURGH     LGT RAIN  41  38  89 N3        29.87S VSB 1
INDIANA*       CLOUDY    41  39  93 E6        29.92S FOG
LATROBE        CLOUDY    41  41 100 N6        29.89S FOG
WASHINGTON CO* CLOUDY    41  37  87 N3        29.89S
$$

PAZ004>006-010>012-017>019-024>028-033>037-041-042-045-046-049>053-010500-
CENTRAL PENNSYLVANIA

CITY           SKY/WX    TMP DP  RH WIND       PRES   REMARKS
BRADFORD       CLOUDY    36  34  92 NE3       29.90S
DUBOIS         CLOUDY    38  37  97 NE5       29.88S
CLEARFIELD     CLOUDY    39  37  92 NE3       29.89S
JOHNSTOWN      LGT RAIN  38  36  92 E5        29.84F FOG
ALTOONA        CLOUDY    42  40  92 CALM      29.87S
STATE COLLEGE  CLOUDY    42  35  74 CALM      29.88S
WILLIAMSPORT   CLOUDY    45  37  73 CALM      29.88F
SELINSGROVE    CLOUDY    45  39  79 CALM      29.88F
FT INDIANTOWN  CLOUDY    47  35  61 VRB3      29.86F
CAPITAL CITY   CLOUDY    46  38  73 SW3       29.87F
HARRISBURG     MOCLDY    47  37  68 NW5       29.86F
YORK           CLOUDY    45  39  79 CALM      29.86F
$$

PAZ038>040-043-044-047-048-054-055-060>062-067>071-010500-
EASTERN PENNSYLVANIA

CITY           SKY/WX    TMP DP  RH WIND       PRES   REMARKS
SCRANTON       CLOUDY    48  34  58 E5        29.87F
MOUNT POCONO   CLOUDY    43  34  70 NE12      29.85F
ALLENTOWN      CLOUDY    48  38  68 NE9       29.86F
QUAKERTOWN*    MOCLDY    46  39  76 N6        29.85F
READING        CLOUDY    49  36  61 NE5       29.85F
LANCASTER      CLOUDY    47  37  68 N6        29.85S
COATESVILLE    CLOUDY    48  37  66 N6        29.84F
POTTSTOWN      LGT RAIN  46  39  76 N5        29.85F
BLUE BELL      MOCLDY    50  39  66 N3        29.82F
DOYLESTOWN     CLOUDY    48  39  71 NE7       29.83F
WILLOW GROVE   NOT AVBL
NORTH PHILA    CLOUDY    52  38  58 NE9       29.84F
PHILADELPHIA   CLOUDY    51  39  63 NE7       29.83S
$$



USA.gov is the U.S. government's official web portal to all federal, state and local government web resources and services.